275  
ASUS46 KSEW 282110  
RWRWA  
 
WASHINGTON REGIONAL WEATHER ROUNDUP  
NATIONAL WEATHER SERVICE SEATTLE WA  
100 PM PST MON NOV 28 2022  
 
NOTE:"FAIR" INDICATES FEW OR NO CLOUDS BELOW 12,000 FEET WITH NO  
SIGNIFICANT WEATHER AND/OR S TO VISIBILITY
.  
 
WAZ507-509-555>559-282200-  
SEATTLE, TACOMA, EVERETT, AND VICINITY  
 
CITY SKY/WX TMP DP RH WIND PRES REMARKS
 
EVERETT MOSUNNY 38 30 73 N8 29.89R  
BOEING FIELD PTSUNNY 40 30 67 W6 29.91S  
RENTON CLOUDY 41 31 67 NW7 29.91S  
SEATAC AIRPORT PTSUNNY 39 31 72 N7 29.89F  
JBLM-MCCHORD NOT AVBL  
PUYALLUP PTSUNNY 37 37 100 CALM 29.89F  
BREMERTON CLOUDY 36 32 85 NE6 29.91S  
JBLM-FT LEWIS NOT AVBL  
TACOMA NARROWS CLOUDY 40 32 73 N10 29.90S  

 
 
WAZ001-503-506-510-514-515-282200-  
NORTH INTERIOR  
 
CITY SKY/WX TMP DP RH WIND PRES REMARKS
 
BELLINGHAM SUNNY 34 15 46 NE22G36 29.92F WCI 22  
FRIDAY HARBOR MOSUNNY 38 17 42 N15 29.95S  
EASTSOUND CLOUDY 37 14 38 N8G17 29.94F  
PORT ANGELES CLOUDY 38 25 59 VRB5 29.96R  
EDIZ HOOK CLOUDY 38 24 58 NE10 29.96S  
PORT TOWNSEND CLOUDY 37 23 56 NW8G15 29.93R  
NAS WHIDBEY PTSUNNY 38 18 44 N16 29.96R  
ARLINGTON SUNNY 36 32 85 N5 29.91S  
BURLINGTON SUNNY 37 25 60 NW10 29.91S  

 
 
WAZ020-022-039-040-504-511-512-282200-  
SOUTHWEST INTERIOR  
 
CITY SKY/WX TMP DP RH WIND PRES REMARKS
 
SHELTON PTSUNNY 43 35 73 SE8 29.87S  
OLYMPIA PTSUNNY 43 35 73 S6 29.89F  
CHEHALIS PTSUNNY 43 34 70 W5 29.90S  
KELSO MOSUNNY 44 39 82 S7 29.92F  
VANCOUVER PTSUNNY 46 32 58 VRB5 29.94S  
SCAPPOOSE, OR PTSUNNY 45 35 68 NW5 29.91F  
PORTLAND, OR PTSUNNY 47 32 56 VRB5 29.93S  

 
 
WAZ021-516-517-282200-  
WASHINGTON COAST  
 
CITY SKY/WX TMP DP RH WIND PRES REMARKS
 
FORKS PTSUNNY 42 36 79 NE6 29.91S  
HOQUIAM SUNNY 45 34 65 W6 29.89F  
ASTORIA, OR MOSUNNY 43 35 73 SW5 29.92S  

 
 
WAZ019-023-024-040-567>569-282200-  
CASCADE MOUNTAINS AND COLUMBIA GORGE  
 
CITY SKY/WX TMP DP RH WIND PRES REMARKS
 
STAMPEDE PASS LGT SNOW 25 21 85 W7 29.69F FOG  
TROUTDALE, OR PTSUNNY 47 35 63 VRB6 29.92F  
HOOD RIVER, OR CLEAR 41 28 60 NW3 29.87R  
THE DALLES, OR PTSUNNY 48 24 39 NW22G30 29.86S  

 
 
WAZ026-027-041>044-520-521-282200-  
EAST SLOPES  
 
CITY SKY/WX TMP DP RH WIND PRES REMARKS
 
OMAK MIX PCPN 24 12 60 N29G38 29.87S WCI 7  
WENATCHEE CLOUDY 28 18 66 E6 29.82R  
ELLENSBURG MOSUNNY 36 25 64 W14G23 29.76S  
YAKIMA PTSUNNY 41 24 51 SE3 29.79S  
SUNNYSIDE ARPT CLOUDY 37 25 60 N8 29.82S  
YAKIMA TC NOT AVBL  

 
 
WAZ028-034-035-282200-  
COLUMBIA BASIN  
 
CITY SKY/WX TMP DP RH WIND PRES REMARKS
 
EPHRATA MOSUNNY 31 10 41 N21G28 29.81R WCI 18  
MOSES LAKE MOSUNNY 33 15 47 N16 29.80S WCI 23  
PASCO PTSUNNY 38 26 62 NW13 29.85S  
RICHLAND ARPT PTCLDY 41 28 60 NW14 29.86S  
HERMISTON, OR MOSUNNY 42 29 59 N13 29.83S  

 
 
WAZ036>038-282200-  
NORTHEAST WASHINGTON  
 
CITY SKY/WX TMP DP RH WIND PRES REMARKS
 
SPOKANE GEIGER CLOUDY 26 21 81 N8 29.69S FOG  
SPOKANE FELTS NOT AVBL  
FAIRCHILD AFB FLURRIES 26 19 74 NW8 29.68S  
COEURDALENE,ID LGT SNOW 27 24 89 N8 29.69S FOG  
DEER PARK LGT SNOW 27 23 85 NW5 29.70F FOG  

 
 
WAZ029>033-282200-  
SOUTHEAST WASHINGTON  
 
CITY SKY/WX TMP DP RH WIND PRES REMARKS
 
PULLMAN CLOUDY 31 28 89 W7 29.69S  
LEWISTON, ID LGT SNOW 32 28 85 CALM 29.73F FOG  
WALLA WALLA CLOUDY 32 28 85 SW9 29.80R  
PENDLETON, OR CLOUDY 34 29 82 N9 29.80R  

 
 
 
CLICK HERE TO GO TO PREVIOUS BULLETINS.

The Nexlab WA Page Main Text Page